Airfield :
LOGIN :

Register | Disclaimer

   EN    FR    IT 

 










Legend :    VFR   Marginal VFR   IFR   Intensive IFR   Very Intensive IFR
Visi :
Ceiling :
>= 8 km
>= 3000ft
5 to 8 km
1000 to 3000 ft
1500m to 5 km
500 to 1000 ft
800 to 1500m
200 to 500 ft
< 800m
< 200 ft
Symbols :   Thunderstorms  Fog  Heavy snow  Heavy precipitations  Wind > 20 kt
SIGMETs :     Misc.  Thunderstorms  Icing  Turbulence  Mountain Waves  Volcanic Ashes







- Airport Elevation : 97 ft
- IATA code : EBJ


EKEB - Esbjerg

CURRENT METAR :
  • 232350Z AUTO 24014KT 9999NDV FEW035/// 07/04 Q1001

EXPIRED METARs :
  • 232320Z AUTO 24019G33KT 9999NDV -SHRA SCT025/// 08/05 Q1001
  • 232250Z AUTO 25018KT 9999NDV -RA BKN034/// BKN057/// 08/04 Q1000
  • 232220Z AUTO 23020G31KT 9999NDV BKN042/// BKN180/// 09/04 Q0999
  • 232150Z AUTO 23018G29KT 9999NDV BKN028/// 09/06 Q0999
  • 232120Z AUTO 22016G26KT 9999NDV BKN025/// BKN083/// 09/05 Q0998

Expired Forecast.
No reported NOTAMs for that airfield.



MET'MAP, your aeronautical weather chart ! - Copyright ORBIFLY December 2007 - Disclaimer

ORBIFLY MET'MAP TEAM :

Programming & Development : Alexandra Zaïnal
Concept & Development : Baudouin d'Aumeries
Co-Development & Prog : Marc-Olivier Méhu
Technical & hardware support : Manuel Goepfert

Contact : metmap@orbifly.com




SOURCES & CREDITS :

   NOAA